GW0346 Weather Reports


Display with metric or nautical units.
time (UTC)temp
F
wind
direction
speed
MPH
gust
MPH
rain 1hr
in
rain 24hr
in
rain mn
in
humidity
%
barometer
mb
20220525170513 83 0 0.0 1.0 0.00 0.00 0.00 37 1009.6
20220525170011 83 0 0.0 1.0 0.00 0.00 0.00 34 1009.6
20220525165512 83 0 0.0 2.0 0.00 0.00 0.00 37 1009.6
20220525165013 82 0 0.0 2.0 0.00 0.00 0.00 33 1009.5
20220525164511 82 135 0.0 1.0 0.00 0.00 0.00 34 1009.7
20220525164015 82 0 0.0 1.0 0.00 0.00 0.00 35 1009.6
20220525163512 81 0 0.0 1.0 0.00 0.00 0.00 33 1009.6
20220525163013 80 0 0.0 0.0 0.00 0.00 0.00 40 1009.6
20220525162514 79 0 0.0 1.0 0.00 0.00 0.00 41 1009.6
20220525162013 78 0 0.0 2.0 0.00 0.00 0.00 38 1009.6
20220525161513 78 0 0.0 2.0 0.00 0.00 0.00 39 1009.6
20220525161010 78 0 0.0 0.0 0.00 0.00 0.00 40 1009.6
20220525160511 77 0 0.0 1.0 0.00 0.00 0.00 42 1009.5
20220525160013 77 0 0.0 1.0 0.00 0.00 0.00 42 1009.5
20220525155513 76 0 0.0 2.0 0.00 0.00 0.00 42 1009.4
20220525155012 76 0 0.0 2.0 0.00 0.00 0.00 43 1009.3
20220525154516 76 9 0.0 2.0 0.00 0.00 0.00 44 1009.3
20220525154013 75 0 0.0 1.0 0.00 0.00 0.00 45 1009.3
20220525153513 75 0 0.0 2.0 0.00 0.00 0.00 45 1009.3
20220525153021 74 0 0.0 2.0 0.00 0.00 0.00 45 1009.2
20220525152513 74 0 0.0 1.0 0.00 0.00 0.00 45 1009.2
20220525152012 74 0 0.0 2.0 0.00 0.00 0.00 47 1009.2
20220525151510 73 0 0.0 2.0 0.00 0.00 0.00 44 1009.1
20220525151013 73 0 0.0 2.0 0.00 0.00 0.00 45 1009.0
20220525150513 73 0 0.0 2.0 0.00 0.00 0.00 45 1008.9
20220525150016 72 0 0.0 2.0 0.00 0.00 0.00 47 1008.9
20220525145513 71 360 1.0 2.0 0.00 0.00 0.00 46 1008.9
20220525145012 71 0 0.0 2.0 0.00 0.00 0.00 47 1008.9
20220525144515 70 0 0.0 2.0 0.00 0.00 0.00 47 1008.8
20220525144015 70 46 0.0 2.0 0.00 0.00 0.00 48 1008.8
20220525143512 70 0 0.0 2.0 0.00 0.00 0.00 49 1008.7
20220525143011 69 13 0.0 2.0 0.00 0.00 0.00 49 1008.8
20220525142519 69 66 0.0 2.0 0.00 0.00 0.00 49 1008.7
20220525142012 68 360 0.0 2.0 0.00 0.00 0.00 50 1008.7
20220525141510 68 0 0.0 2.0 0.00 0.00 0.00 50 1008.7
20220525141012 68 352 0.0 2.0 0.00 0.00 0.00 51 1008.7
20220525140512 68 0 0.0 1.0 0.00 0.00 0.00 50 1008.8
20220525140010 67 0 0.0 1.0 0.00 0.00 0.00 51 1008.7
20220525135512 67 21 0.0 1.0 0.00 0.00 0.00 51 1008.8
20220525135014 67 0 0.0 1.0 0.00 0.00 0.00 51 1008.7
20220525134515 67 0 0.0 0.0 0.00 0.00 0.00 52 1008.7
20220525134013 66 0 0.0 1.0 0.00 0.00 0.00 52 1008.7
20220525133511 66 0 0.0 1.0 0.00 0.00 0.00 53 1008.6
20220525133010 65 0 0.0 2.0 0.00 0.00 0.00 53 1008.5
20220525132512 65 21 0.0 2.0 0.00 0.00 0.00 55 1008.5
20220525132012 65 13 0.0 2.0 0.00 0.00 0.00 55 1008.4
20220525131510 65 9 0.0 2.0 0.00 0.00 0.00 54 1008.3
20220525131009 64 17 0.0 1.0 0.00 0.00 0.00 54 1008.4
20220525130511 64 0 0.0 1.0 0.00 0.00 0.00 54 1008.3
20220525130011 64 0 0.0 1.0 0.00 0.00 0.00 54 1008.3
20220525125510 64 0 0.0 1.0 0.00 0.00 0.00 55 1008.3
20220525125010 64 0 0.0 1.0 0.00 0.00 0.00 55 1008.3
20220525124514 64 0 0.0 1.0 0.00 0.00 0.00 56 1008.3
20220525124010 64 0 0.0 0.0 0.00 0.00 0.00 56 1008.3
20220525123510 65 0 0.0 1.0 0.00 0.00 0.00 54 1008.2
20220525123010 65 0 0.0 1.0 0.00 0.00 0.00 53 1008.2
20220525122511 65 0 0.0 1.0 0.00 0.00 0.00 53 1008.2
20220525122013 65 0 0.0 1.0 0.00 0.00 0.00 54 1008.1
20220525121514 65 0 0.0 0.0 0.00 0.00 0.00 56 1008.1
20220525121011 64 0 0.0 0.0 0.00 0.00 0.00 55 1008.2
20220525120510 65 0 0.0 1.0 0.00 0.00 0.00 54 1008.2
20220525120012 65 0 0.0 1.0 0.00 0.00 0.00 53 1008.0
20220525115511 64 0 0.0 0.0 0.00 0.00 0.00 55 1007.9
20220525115010 64 0 0.0 1.0 0.00 0.00 0.00 56 1008.0
20220525114513 65 0 0.0 1.0 0.00 0.00 0.00 53 1008.0
20220525114011 66 0 0.0 1.0 0.00 0.00 0.00 52 1008.0
20220525113511 66 0 0.0 1.0 0.00 0.00 0.00 52 1008.0
20220525113008 66 0 0.0 1.0 0.00 0.00 0.00 52 1007.9
20220525112511 67 0 0.0 2.0 0.00 0.00 0.00 50 1007.9
20220525112010 67 0 0.0 2.0 0.00 0.00 0.00 50 1007.8
20220525111510 66 5 1.0 3.0 0.00 0.00 0.00 51 1007.7
20220525111010 66 5 1.0 3.0 0.00 0.00 0.00 52 1007.7
20220525110510 66 23 0.0 2.0 0.00 0.00 0.00 52 1007.6
20220525110010 66 0 0.0 1.0 0.00 0.00 0.00 52 1007.6
20220525105512 67 0 0.0 1.0 0.00 0.00 0.00 51 1007.5
20220525105009 67 0 0.0 1.0 0.00 0.00 0.00 50 1007.6
20220525104512 67 0 0.0 1.0 0.00 0.00 0.00 50 1007.5
20220525104011 68 0 0.0 1.0 0.00 0.00 0.00 50 1007.5
20220525103514 68 0 0.0 1.0 0.00 0.00 0.00 49 1007.5
20220525103010 68 0 0.0 2.0 0.00 0.00 0.00 48 1007.5
20220525102511 68 0 0.0 3.0 0.00 0.00 0.00 47 1007.4
20220525102009 68 0 0.0 4.0 0.00 0.00 0.00 48 1007.4
20220525101509 68 20 1.0 4.0 0.00 0.00 0.00 48 1007.5
20220525101013 68 27 0.0 3.0 0.00 0.00 0.00 48 1007.4
20220525100512 68 0 0.0 3.0 0.00 0.00 0.00 48 1007.3
20220525100012 68 17 0.0 3.0 0.00 0.00 0.00 48 1007.3
20220525095512 68 26 1.0 3.0 0.00 0.00 0.00 49 1007.4
20220525095012 68 0 0.0 2.0 0.00 0.00 0.00 48 1007.4
20220525094512 68 0 0.0 2.0 0.00 0.00 0.00 48 1007.4
20220525094014 69 0 0.0 3.0 0.00 0.00 0.00 48 1007.4
20220525093511 69 33 0.0 4.0 0.00 0.00 0.00 47 1007.4
20220525093009 69 5 1.0 4.0 0.00 0.00 0.00 46 1007.3
20220525092512 69 16 1.0 3.0 0.00 0.00 0.00 47 1007.3
20220525092012 69 0 0.0 2.0 0.00 0.00 0.00 47 1007.4
20220525091509 69 0 0.0 2.0 0.00 0.00 0.00 47 1007.3
20220525091012 69 0 0.0 3.0 0.00 0.00 0.00 47 1007.3
20220525090512 69 0 0.0 3.0 0.00 0.00 0.00 47 1007.4
20220525090013 69 24 0.0 2.0 0.00 0.00 0.00 48 1007.4
20220525085512 69 0 0.0 2.0 0.00 0.00 0.00 48 1007.3
20220525085014 69 0 0.0 2.0 0.00 0.00 0.00 47 1007.3
20220525084512 69 0 0.0 2.0 0.00 0.00 0.00 46 1007.5
20220525084019 69 0 0.0 2.0 0.00 0.00 0.00 46 1007.5
20220525083512 69 0 0.0 1.0 0.00 0.00 0.00 47 1007.5
20220525083025 70 0 0.0 1.0 0.00 0.00 0.00 47 1007.4
20220525082513 70 0 0.0 2.0 0.00 0.00 0.00 46 1007.5
20220525082012 70 0 0.0 2.0 0.00 0.00 0.00 46 1007.6
20220525081513 70 0 0.0 1.0 0.00 0.00 0.00 46 1007.4
20220525081013 70 52 0.0 1.0 0.00 0.00 0.00 47 1007.5
20220525080513 70 0 0.0 2.0 0.00 0.00 0.00 47 1007.6
20220525080010 70 0 0.0 2.0 0.00 0.00 0.00 47 1007.5
20220525075513 70 0 0.0 1.0 0.00 0.00 0.00 47 1007.6
20220525075012 70 0 0.0 1.0 0.00 0.00 0.00 47 1007.6
20220525074511 70 0 0.0 2.0 0.00 0.00 0.00 46 1007.7
20220525074012 70 0 0.0 2.0 0.00 0.00 0.00 46 1007.6
20220525073512 71 5 0.0 2.0 0.00 0.00 0.00 46 1007.7
20220525073010 71 352 0.0 3.0 0.00 0.00 0.00 45 1007.7
20220525072511 71 0 0.0 3.0 0.00 0.00 0.00 45 1007.8
20220525072012 71 13 1.0 3.0 0.00 0.00 0.00 45 1007.7
20220525071519 71 0 0.0 2.0 0.00 0.00 0.00 44 1007.8
20220525071013 71 0 0.0 2.0 0.00 0.00 0.00 46 1007.8
20220525070513 71 0 0.0 2.0 0.00 0.00 0.00 44 1007.8
20220525070010 70 0 0.0 2.0 0.00 0.00 0.00 45 1007.9
20220525065512 70 0 0.0 1.0 0.00 0.00 0.00 46 1007.9
20220525065012 71 0 0.0 1.0 0.00 0.00 0.00 44 1007.8
20220525064511 71 0 0.0 1.0 0.00 0.00 0.00 43 1007.8
20220525064013 71 0 0.0 1.0 0.00 0.00 0.00 44 1007.9
20220525063512 70 0 0.0 0.0 0.00 0.00 0.00 45 1007.9
20220525063010 70 0 0.0 1.0 0.00 0.00 0.00 46 1008.0
20220525062513 71 0 0.0 2.0 0.00 0.00 0.00 46 1007.9
20220525062012 71 0 0.0 2.0 0.00 0.00 0.00 44 1008.0
20220525061520 72 0 0.0 1.0 0.00 0.00 0.00 43 1008.0
20220525061009 72 10 0.0 2.0 0.00 0.00 0.00 43 1008.0
20220525060511 71 0 0.0 2.0 0.00 0.00 0.00 44 1008.0
20220525060011 71 0 0.0 1.0 0.00 0.00 0.00 44 1008.0
20220525055510 71 0 0.0 0.0 0.00 0.00 0.00 44 1008.0
20220525055011 71 0 0.0 1.0 0.00 0.00 0.00 45 1008.0
20220525054512 71 0 0.0 1.0 0.00 0.00 0.00 45 1008.1
20220525054009 71 13 0.0 1.0 0.00 0.00 0.00 45 1008.1
20220525053510 70 0 0.0 1.0 0.00 0.00 0.00 46 1008.1
20220525053010 71 0 0.0 1.0 0.00 0.00 0.00 46 1008.1
20220525052509 71 0 0.0 2.0 0.00 0.00 0.00 45 1008.0
20220525052011 70 0 0.0 2.0 0.00 0.00 0.00 47 1008.1
20220525051510 69 13 0.0 1.0 0.00 0.00 0.00 49 1008.1
20220525051019 69 0 0.0 0.0 0.00 0.00 0.00 49 1008.2
20220525050510 69 0 0.0 0.0 0.00 0.00 0.00 50 1008.1
20220525050033 70 0 0.0 0.0 0.00 0.00 0.00 50 1008.1
20220525045511 70 0 0.0 0.0 0.00 0.00 0.00 50 1007.9
20220525045012 71 0 0.0 0.0 0.00 0.00 0.00 49 1007.9
20220525044510 71 0 0.0 1.0 0.00 0.00 0.00 48 1007.8
20220525044010 71 0 0.0 1.0 0.00 0.00 0.00 48 1007.8
20220525043512 70 0 0.0 1.0 0.00 0.00 0.00 49 1007.8
20220525043014 71 0 0.0 1.0 0.00 0.00 0.00 48 1007.7
20220525042511 72 0 0.0 1.0 0.00 0.00 0.00 47 1007.8
20220525042010 72 13 0.0 1.0 0.00 0.00 0.00 47 1007.8
20220525041520 73 13 0.0 2.0 0.00 0.00 0.00 46 1007.7
20220525041010 73 13 0.0 2.0 0.00 0.00 0.00 44 1007.6
20220525040511 74 0 0.0 0.0 0.00 0.00 0.00 42 1007.7
20220525040013 74 0 0.0 0.0 0.00 0.00 0.00 41 1007.7
20220525035510 74 0 0.0 0.0 0.00 0.00 0.00 40 1007.6
20220525035037 74 0 0.0 0.0 0.00 0.00 0.00 39 1007.6
20220525034512 75 0 0.0 0.0 0.00 0.00 0.00 36 1007.6
20220525034011 76 0 0.0 0.0 0.00 0.00 0.00 36 1007.6
20220525033513 76 0 0.0 0.0 0.00 0.00 0.00 35 1007.6
20220525033026 76 0 0.0 0.0 0.00 0.00 0.00 35 1007.6
20220525032511 77 0 0.0 0.0 0.00 0.00 0.00 35 1007.5
20220525032010 78 0 0.0 0.0 0.00 0.00 0.00 34 1007.5
20220525031511 78 0 0.0 0.0 0.00 0.00 0.00 33 1007.5
20220525031010 78 0 0.0 0.0 0.00 0.00 0.00 33 1007.4
20220525030510 78 0 0.0 0.0 0.00 0.00 0.00 32 1007.4
20220525030014 79 0 0.0 0.0 0.00 0.00 0.00 32 1007.3
20220525025511 79 0 0.0 0.0 0.00 0.00 0.00 31 1007.3
20220525025010 79 0 0.0 0.0 0.00 0.00 0.00 32 1007.4
20220525024512 79 0 0.0 0.0 0.00 0.00 0.00 32 1007.5
20220525024011 80 0 0.0 0.0 0.00 0.00 0.00 32 1007.4
20220525023511 80 0 0.0 1.0 0.00 0.00 0.00 32 1007.5
20220525023012 81 0 0.0 1.0 0.00 0.00 0.00 31 1007.5
20220525022511 81 0 0.0 1.0 0.00 0.00 0.00 30 1007.6
20220525022010 82 0 0.0 1.0 0.00 0.00 0.00 29 1007.6
20220525021512 82 0 0.0 2.0 0.00 0.00 0.00 30 1007.6
20220525021013 83 0 0.0 2.0 0.00 0.00 0.00 29 1007.6
20220525020512 83 0 0.0 1.0 0.00 0.00 0.00 29 1007.5
20220525020012 83 0 0.0 1.0 0.00 0.00 0.00 29 1007.5
20220525015512 84 0 0.0 1.0 0.00 0.00 0.00 28 1007.5
20220525015010 85 0 0.0 1.0 0.00 0.00 0.00 27 1007.4
20220525014514 86 29 0.0 2.0 0.00 0.00 0.00 27 1007.3
20220525014012 87 76 0.0 2.0 0.00 0.00 0.00 22 1007.4
20220525013511 87 0 0.0 2.0 0.00 0.00 0.00 26 1007.5
20220525013010 87 120 0.0 1.0 0.00 0.00 0.00 22 1007.5
20220525012512 87 0 0.0 4.0 0.00 0.00 0.00 28 1007.6
20220525012012 87 0 0.0 4.0 0.00 0.00 0.00 23 1007.6
20220525011512 87 0 0.0 3.0 0.00 0.00 0.00 27 1007.6
20220525011012 88 0 0.0 3.0 0.00 0.00 0.00 22 1007.7
20220525010511 88 0 0.0 2.0 0.00 0.00 0.00 26 1007.6
20220525010016 88 0 0.0 3.0 0.00 0.00 0.00 22 1007.6
20220525005511 89 0 0.0 3.0 0.00 0.00 0.00 22 1007.7
20220525005011 89 0 0.0 2.0 0.00 0.00 0.00 22 1007.7
20220525004518 90 0 0.0 2.0 0.00 0.00 0.00 24 1007.7
20220525004012 90 0 0.0 4.0 0.00 0.00 0.00 25 1007.8
20220525003512 90 0 0.0 4.0 0.00 0.00 0.00 18 1007.8
20220525003010 90 0 0.0 2.0 0.00 0.00 0.00 23 1007.8
20220525002511 91 0 0.0 2.0 0.00 0.00 0.00 20 1007.8
20220525002015 90 0 0.0 2.0 0.00 0.00 0.00 18 1007.8
20220525001509 90 0 0.0 2.0 0.00 0.00 0.00 19 1007.9
20220525001012 91 0 0.0 2.0 0.00 0.00 0.00 21 1007.9
20220525000512 91 0 0.0 2.0 0.00 0.00 0.00 19 1008.0
20220525000012 91 0 0.0 2.0 0.00 0.00 0.00 17 1007.9
20220524235514 91 0 0.0 2.0 0.00 0.00 0.00 22 1008.0
20220524235011 91 202 0.0 3.0 0.00 0.00 0.00 20 1008.0
20220524234524 91 0 0.0 3.0 0.00 0.00 0.00 18 1008.0
20220524234012 91 184 0.0 3.0 0.00 0.00 0.00 18 1008.1
20220524233514 91 227 0.0 3.0 0.00 0.00 0.00 19 1008.1
20220524233010 92 28 0.0 3.0 0.00 0.00 0.00 24 1008.1
20220524232512 91 0 0.0 3.0 0.00 0.00 0.00 17 1008.1
20220524232012 92 0 0.0 4.0 0.00 0.00 0.00 16 1008.2
20220524231514 93 15 0.0 4.0 0.00 0.00 0.00 18 1008.3
20220524231012 92 17 1.0 4.0 0.00 0.00 0.00 17 1008.3
20220524230512 92 33 0.0 3.0 0.00 0.00 0.00 18 1008.3
20220524230014 92 0 0.0 3.0 0.00 0.00 0.00 18 1008.3
20220524225512 92 5 1.0 4.0 0.00 0.00 0.00 18 1008.3
20220524225012 91 148 0.0 4.0 0.00 0.00 0.00 27 1008.4
20220524224517 92 0 0.0 3.0 0.00 0.00 0.00 16 1008.4
20220524224012 91 0 0.0 3.0 0.00 0.00 0.00 26 1008.5
20220524223511 91 120 0.0 3.0 0.00 0.00 0.00 19 1008.6
20220524223013 91 98 1.0 4.0 0.00 0.00 0.00 21 1008.5
20220524222514 91 69 0.0 4.0 0.00 0.00 0.00 22 1008.6
20220524222012 91 0 1.0 4.0 0.00 0.00 0.00 21 1008.7
20220524221512 91 167 1.0 3.0 0.00 0.00 0.00 21 1008.8
20220524221013 91 0 0.0 3.0 0.00 0.00 0.00 23 1008.8
20220524220513 90 0 1.0 3.0 0.00 0.00 0.00 23 1008.8
20220524220013 90 0 0.0 3.0 0.00 0.00 0.00 24 1009.0
20220524215512 90 17 0.0 4.0 0.00 0.00 0.00 23 1009.1
20220524215011 90 134 0.0 4.0 0.00 0.00 0.00 23 1009.1
20220524214511 90 144 1.0 3.0 0.00 0.00 0.00 25 1009.1
20220524214012 90 0 1.0 3.0 0.00 0.00 0.00 24 1009.1
20220524213512 90 74 0.0 2.0 0.00 0.00 0.00 25 1009.1
20220524213010 90 138 1.0 5.0 0.00 0.00 0.00 27 1009.3
20220524212512 90 0 1.0 5.0 0.00 0.00 0.00 24 1009.2
20220524212013 90 0 0.0 3.0 0.00 0.00 0.00 25 1009.2
20220524211514 89 104 0.0 3.0 0.00 0.00 0.00 26 1009.3
20220524211012 89 162 0.0 3.0 0.00 0.00 0.00 24 1009.4
20220524210512 89 190 0.0 3.0 0.00 0.00 0.00 27 1009.4
20220524210022 89 0 0.0 4.0 0.00 0.00 0.00 25 1009.4
20220524205516 89 213 1.0 4.0 0.00 0.00 0.00 26 1009.5
20220524205011 89 0 0.0 5.0 0.00 0.00 0.00 28 1009.5
20220524204510 88 0 1.0 5.0 0.00 0.00 0.00 26 1009.5
20220524204011 88 0 0.0 3.0 0.00 0.00 0.00 25 1009.6
20220524203512 88 46 1.0 3.0 0.00 0.00 0.00 23 1009.6
20220524203010 87 0 0.0 3.0 0.00 0.00 0.00 26 1009.6
20220524202511 87 213 0.0 2.0 0.00 0.00 0.00 24 1009.7
20220524202010 87 175 1.0 3.0 0.00 0.00 0.00 26 1009.7
20220524201512 87 165 1.0 3.0 0.00 0.00 0.00 24 1009.8
20220524201012 86 0 0.0 3.0 0.00 0.00 0.00 25 1009.7
20220524200512 87 180 1.0 3.0 0.00 0.00 0.00 29 1009.8
20220524200009 86 223 1.0 3.0 0.00 0.00 0.00 25 1009.8
20220524195509 86 0 1.0 3.0 0.00 0.00 0.00 26 1009.9
20220524195012 86 124 0.0 3.0 0.00 0.00 0.00 26 1009.9
20220524194512 86 86 0.0 4.0 0.00 0.00 0.00 28 1009.9
20220524194012 85 20 1.0 4.0 0.00 0.00 0.00 34 1009.8
20220524193511 86 149 1.0 4.0 0.00 0.00 0.00 28 1009.9
20220524193021 85 166 1.0 3.0 0.00 0.00 0.00 28 1009.8
20220524192512 85 109 1.0 3.0 0.00 0.00 0.00 27 1009.8
20220524192014 85 0 1.0 3.0 0.00 0.00 0.00 29 1009.8
20220524191535 84 136 1.0 4.0 0.00 0.00 0.00 25 1009.9
20220524191012 85 180 0.0 4.0 0.00 0.00 0.00 27 1009.9
20220524190511 85 169 1.0 3.0 0.00 0.00 0.00 26 1010.0
20220524190012 84 160 1.0 3.0 0.00 0.00 0.00 26 1010.1
20220524185512 83 126 0.0 3.0 0.00 0.00 0.00 28 1010.1
20220524185012 83 168 0.0 2.0 0.00 0.00 0.00 27 1010.2
20220524184510 82 198 0.0 3.0 0.00 0.00 0.00 27 1010.2
20220524184012 83 68 1.0 3.0 0.00 0.00 0.00 30 1010.2
20220524183512 82 147 0.0 3.0 0.00 0.00 0.00 32 1010.2
20220524183027 82 109 0.0 2.0 0.00 0.00 0.00 35 1010.2
20220524182514 81 0 0.0 3.0 0.00 0.00 0.00 32 1010.2
20220524182014 81 130 0.0 3.0 0.00 0.00 0.00 34 1010.2
20220524181516 81 0 1.0 3.0 0.00 0.00 0.00 34 1010.2
20220524181012 81 161 1.0 3.0 0.00 0.00 0.00 33 1010.4
20220524180512 80 137 0.0 3.0 0.00 0.00 0.00 35 1010.3
20220524180009 79 141 1.0 3.0 0.00 0.00 0.00 33 1010.4
20220524175512 79 98 1.0 3.0 0.00 0.00 0.00 34 1010.3
20220524175012 79 175 1.0 3.0 0.00 0.00 0.00 36 1010.3
20220524174512 78 167 0.0 3.0 0.00 0.00 0.00 38 1010.3
20220524174011 78 0 0.0 2.0 0.00 0.00 0.00 42 1010.3
20220524173513 78 0 0.0 2.0 0.00 0.00 0.00 36 1010.3
20220524173013 78 0 0.0 2.0 0.00 0.00 0.00 38 1010.3
20220524172512 78 0 0.0 3.0 0.00 0.00 0.00 42 1010.3
20220524172012 77 0 1.0 3.0 0.00 0.00 0.00 36 1010.2
20220524171518 77 0 0.0 2.0 0.00 0.00 0.00 42 1010.3
20220524171014 77 0 0.0 3.0 0.00 0.00 0.00 38 1010.3